Find Starlink 6124

NORAD ID: 56126 Int'l Des: 2023-046 Owner: SPXS Country: US Constellation: starlink operational
LEOCIRCULAR

Live Position

Loading 3D Globe...

About Starlink 6124

Description loading...

Upcoming Passes

Passes for default location (London). Set your location on the main map for personalized predictions.

Altitude History

Loading altitude history...

Two-Line Element Set

1 56126U 23046AL 26106.56274505 .00000026 00000-0 10656-4 0 9994
2 56126 43.0037 292.9895 0001061 266.0686 94.0044 15.26742100167996
Epoch: Apr 16, 2026 • Age: 27 hours

Current Status

Altitude 485.0 km
Velocity 7.62 km/s
Sub-Earth Point 3.66°N, 2.4°E
Launch Date Mar 29, 2023
Age 3 years
Type internet

Technical Details

Classification Payload
Mass 305.00 kg
Dry Mass 290.00 kg
Total Mass 305.00 kg
Length 0.20 m
Diameter 2.80 m
Span 9.00 m
Shape Box + pan
Manufacturer SPXS
Bus Type Starlink
Phase Status In Orbit
Owner/State SPXS/US

Most Searched